Regional Weather Roundup
Issued by NWS Raleigh/Durham, NC

Current Version | Previous Version | Text Only | Print | Product List | Glossary On
Versions: 1 2 3 4 5 6 7 8 9 10 11 12 13 14 15 16 17 18 19 20 21 22 23 24 25 26 27
000
ASUS42 KRAH 201310
RWRRAH
NORTH CAROLINA WEATHER ROUNDUP
NATIONAL WEATHER SERVICE RALEIGH NC
800 AM EST MON NOV 20 2017

NOTE: "FAIR" INDICATES FEW OR NO CLOUDS BELOW 12,000 FEET WITH NO
SIGNIFICANT WEATHER AND/OR OBSTRUCTIONS TO VISIBILITY.

NCZ001-053-055-056-065-067-201400-
WESTERN NORTH CAROLINA

CITY           SKY/WX    TMP DP  RH WIND       PRES   REMARKS
ASHEVILLE      CLOUDY    31  25  78 N6        30.23R WCI  25
JEFFERSON      CLOUDY    28  18  67 W8        30.15R WCI  20
HICKORY        CLEAR     31  24  75 CALM      30.21R
RUTHERFORDTON  CLOUDY    28  26  89 CALM      30.23R
MOUNT AIRY     CLEAR     33  24  69 CALM      30.25R
BOONE          CLEAR     28  20  73 SW7       30.18R WCI  20
$$

NCZ021-022-025-041-071-084-088-201400-
CENTRAL NORTH CAROLINA

CITY           SKY/WX    TMP DP  RH WIND       PRES   REMARKS
CHARLOTTE      CLEAR     32  30  92 CALM      30.24R
GREENSBORO     CLEAR     37  23  56 NW8       30.23R WCI  31
WINSTON-SALEM  CLEAR     31  25  78 CALM      30.25R
RALEIGH-DURHAM SUNNY     33  28  81 CALM      30.26R
FORT BRAGG     SUNNY     34  29  84 N3        30.25R
FAYETTEVILLE   SUNNY     37  30  75 CALM      30.25R
BURLINGTON     CLEAR     30  27  88 SW5       30.25R WCI  25
LAURINBURG     SUNNY     30  29  96 CALM      30.27R
$$

NCZ011-015-027-028-043-044-047-080-103-201400-
NORTHEASTERN NORTH CAROLINA

CITY           SKY/WX    TMP DP  RH WIND       PRES   REMARKS
ROCKY MT-WILSO MOSUNNY   36  29  75 W6        30.25R WCI  31
GREENVILLE     MOSUNNY   37  30  75 NW3       30.24R
WASHINGTON     MOSUNNY   37  28  72 N5        30.23R WCI  33
ELIZABETH CITY MOSUNNY   38  31  76 W9        30.23R WCI  31
MANTEO         SUNNY     45  31  60 NW10G16   30.21R
CAPE HATTERAS  SUNNY     48  35  60 NW8G18    30.21R
$$

NCZ078-087-090-091-093-098-101-201400-
SOUTHEASTERN NORTH CAROLINA

CITY           SKY/WX    TMP DP  RH WIND       PRES   REMARKS
LUMBERTON      SUNNY     33  31  92 CALM      30.26R
GOLDSBORO      SUNNY     41  26  55 NW8       30.23R
KINSTON        SUNNY     34  30  86 CALM      30.25R
KENANSVILLE    MOSUNNY   30  28  93 CALM      30.25R
NEW BERN       MOSUNNY   37  30  75 W5        30.25R WCI  33
CHERRY POINT   NOT AVBL
BEAUFORT       SUNNY     43  33  68 N10       30.24R
JACKSONVILLE   NOT AVBL
WILMINGTON     SUNNY     38  33  82 CALM      30.25R
$$





USA.gov is the U.S. government's official web portal to all federal, state and local government web resources and services.